Weather History for KHLC - April, 2012

Change the Weather History Date:

Wednesday, April 18, 2012

  Actual Average Record
Temperature  
Mean Temperature 58 °F 52 °F  
Max Temperature 74 °F 66 °F 97 °F (1948)
Min Temperature 41 °F 39 °F 20 °F (1912)
Degree Days  
Heating Degree Days 6    
Growing Degree Days 8 (Base 50)    
Moisture  
Dew Point 49 °F    
Average Humidity 69    
Maximum Humidity 93    
Minimum Humidity 44    
Precipitation  
Precipitation 0.00 in 0.07 in 0.31 in (2009)
Month to date precipitation 1.38 1.11  
Year to date precipitation 3.10 3.71  
Sea Level Pressure  
Sea Level Pressure 29.92 in    
Wind  
Wind Speed 6 mph (East)    
Max Wind Speed 10 mph    
Max Gust Speed 16 mph    
Visibility 10 miles    
Events      
T = Trace of Precipitation, MM = Missing Value Source: NWS Daily Summary

Daily Weather History Graph

Daily Weather History Graph

Search for Another Location

Airport or City:

Trip Planner

Search our weather history database for the weather conditions in past years. The results will help you decide how hot, cold, wet, or windy it might be!

Date:

Astronomy

Apr. 18, 2012 Rise Set
Actual Time 6:57 AM CDT 8:20 PM CDT
Civil Twilight 6:29 AM CDT 8:48 PM CDT
Nautical Twilight 5:55 AM CDT 9:22 PM CDT
Astronomical Twilight 5:20 AM CDT 9:57 PM CDT
Moon 5:22 AM CDT (4/18) 6:13 PM CDT (4/18)
Length of Visible Light 14h 19m
Length of Day
13h 23m
Waning Crescent, 6% of the Moon is Illuminated
Apr 18
Waning Crescent
Apr 21
New
Apr 29
First Quarter
May 5
Full
May 12
Last Quarter

Hourly Weather History & Observations

Time (CDT) Temp. Windchill Dew Point Humidity Pressure Visibility Wind Dir Wind Speed Gust Speed Precip Events Conditions
12:53 AM 57.0 °F - 48.0 °F 72% 30.00 in 10.0 mi South 9.2 mph - N/A   Clear
1:53 AM 55.9 °F - 48.0 °F 75% 30.00 in 10.0 mi Variable 3.5 mph - N/A   Clear
2:53 AM 55.0 °F - 46.9 °F 74% 29.99 in 10.0 mi South 6.9 mph - N/A   Clear
3:53 AM 52.0 °F - 46.9 °F 83% 30.00 in 10.0 mi Variable 4.6 mph - N/A   Clear
4:53 AM 46.9 °F - 44.1 °F 90% 30.00 in 10.0 mi South 3.5 mph - N/A   Clear
5:53 AM 44.1 °F - 41.0 °F 89% 29.99 in 10.0 mi Calm Calm - N/A   Clear
7:53 AM 46.0 °F 44.8 °F 44.1 °F 93% 30.00 in 10.0 mi North 3.5 mph - N/A   Clear
8:53 AM 54.0 °F - 48.0 °F 80% 30.01 in 10.0 mi North 8.1 mph - N/A   Clear
9:53 AM 60.1 °F - 48.9 °F 67% 29.99 in 10.0 mi Variable 4.6 mph - N/A   Clear
10:53 AM 63.0 °F - 51.1 °F 65% 29.99 in 10.0 mi NNE 10.4 mph - N/A   Clear
11:53 AM 66.0 °F - 52.0 °F 60% 29.98 in 10.0 mi Variable 6.9 mph 16.1 mph N/A   Clear
12:53 PM 68.0 °F - 52.0 °F 56% 29.96 in 10.0 mi NE 10.4 mph - N/A   Clear
1:53 PM 69.1 °F - 50.0 °F 51% 29.93 in 10.0 mi ENE 4.6 mph - N/A   Clear
2:53 PM 71.1 °F - 50.0 °F 47% 29.91 in 10.0 mi ESE 8.1 mph - N/A   Clear
3:53 PM 73.0 °F - 50.0 °F 44% 29.88 in 10.0 mi ESE 9.2 mph - N/A   Clear
4:53 PM 73.9 °F - 51.1 °F 45% 29.86 in 10.0 mi East 10.4 mph - N/A   Clear
5:53 PM 72.0 °F - 52.0 °F 49% 29.86 in 10.0 mi ESE 4.6 mph - N/A   Clear
6:53 PM 70.0 °F - 51.1 °F 51% 29.85 in 10.0 mi SE 9.2 mph - N/A   Clear
7:53 PM 66.9 °F - 51.1 °F 57% 29.83 in 10.0 mi ESE 5.8 mph - N/A   Clear
8:53 PM 57.9 °F - 51.1 °F 78% 29.82 in 10.0 mi East 5.8 mph - N/A   Clear
9:53 PM 55.0 °F - 48.9 °F 80% 29.82 in 10.0 mi East 4.6 mph - N/A   Clear
10:53 PM 55.0 °F - 51.1 °F 86% 29.81 in 10.0 mi ENE 6.9 mph - N/A   Clear
11:53 PM 52.0 °F - 48.9 °F 89% 29.77 in 10.0 mi Calm Calm - N/A   Clear